Datum;Richtung;Anzahl Messungen;Anzahl Fahrzeuge;Durchschnittsgeschwindigkeit;Höchstgeschwindigkeit
02/11/2020 12:00;1;98;98;23.53;46.00
02/11/2020 12:30;1;96;96;23.96;41.00
02/11/2020 13:00;1;100;100;23.93;40.00
02/11/2020 13:30;1;112;112;24.11;39.00
02/11/2020 14:00;1;121;121;23.94;40.00
02/11/2020 14:30;1;119;119;23.73;46.00
02/11/2020 15:00;1;90;90;24.54;44.00
02/11/2020 15:30;1;96;96;23.01;43.00
02/11/2020 16:00;1;123;123;23.39;60.00
02/11/2020 16:30;1;111;111;23.15;41.00
02/11/2020 17:00;1;102;102;23.88;44.00
02/11/2020 17:30;1;111;111;23.41;40.00
02/11/2020 18:00;1;97;97;23.67;54.00
02/11/2020 18:30;1;91;91;23.44;38.00
02/11/2020 19:00;1;69;69;24.20;46.00
02/11/2020 19:30;1;72;72;24.22;41.00
02/11/2020 20:00;1;47;47;22.38;36.00
02/11/2020 20:30;1;49;49;24.33;43.00
02/11/2020 21:00;1;35;35;23.94;35.00
02/11/2020 21:30;1;15;15;21.93;27.00
02/11/2020 22:00;1;23;23;23.48;37.00
02/11/2020 22:30;1;20;20;22.80;38.00
02/11/2020 23:00;1;12;12;29.00;43.00
02/11/2020 23:30;1;10;10;22.00;41.00
03/11/2020 00:00;1;11;11;22.64;35.00
03/11/2020 00:30;1;4;4;23.25;31.00
03/11/2020 01:00;1;5;5;18.80;21.00
03/11/2020 01:30;1;4;4;19.50;21.00
03/11/2020 02:00;1;1;1;20.00;20.00
03/11/2020 02:30;1;2;2;21.00;25.00
03/11/2020 03:00;1;1;1;27.00;27.00
03/11/2020 03:30;1;1;1;25.00;25.00
03/11/2020 04:00;1;3;3;22.33;25.00
03/11/2020 04:30;1;12;12;29.08;50.00
03/11/2020 05:00;1;11;11;19.27;25.00
03/11/2020 05:30;1;24;24;22.88;32.00
03/11/2020 06:00;1;22;22;24.82;44.00
03/11/2020 06:30;1;33;33;24.85;51.00
03/11/2020 07:00;1;54;54;23.43;38.00
03/11/2020 07:30;1;95;95;23.81;40.00
03/11/2020 08:00;1;106;106;24.13;57.00
03/11/2020 08:30;1;101;101;23.16;36.00
03/11/2020 09:00;1;96;96;22.22;36.00
03/11/2020 09:30;1;124;124;24.10;46.00
03/11/2020 10:00;1;117;117;23.55;45.00
03/11/2020 10:30;1;113;113;23.53;41.00
03/11/2020 11:00;1;118;118;22.99;33.00
03/11/2020 11:30;1;114;114;23.80;57.00
03/11/2020 12:00;1;121;121;22.75;39.00
03/11/2020 12:30;1;99;99;24.53;43.00
03/11/2020 13:00;1;102;102;24.42;53.00
03/11/2020 13:30;1;118;118;22.86;37.00
03/11/2020 14:00;1;101;101;23.70;40.00
03/11/2020 14:30;1;112;112;23.23;37.00
03/11/2020 15:00;1;121;121;22.76;43.00
03/11/2020 15:30;1;92;92;22.80;38.00
03/11/2020 16:00;1;97;97;22.59;44.00
03/11/2020 16:30;1;106;106;24.03;40.00
03/11/2020 17:00;1;101;101;22.79;31.00
03/11/2020 17:30;1;94;94;23.22;35.00
03/11/2020 18:00;1;78;78;24.58;41.00
03/11/2020 18:30;1;80;80;24.24;37.00
03/11/2020 19:00;1;64;64;24.11;40.00
03/11/2020 19:30;1;64;64;23.67;40.00
03/11/2020 20:00;1;47;47;24.66;39.00
03/11/2020 20:30;1;45;45;22.20;35.00
03/11/2020 21:00;1;28;28;23.50;36.00
03/11/2020 21:30;1;26;26;22.19;33.00
03/11/2020 22:00;1;20;20;22.95;32.00
03/11/2020 22:30;1;24;24;24.17;38.00
03/11/2020 23:00;1;13;13;22.00;33.00
03/11/2020 23:30;1;14;14;23.64;38.00
04/11/2020 00:00;1;6;6;21.50;26.00
04/11/2020 00:30;1;7;7;24.57;27.00
04/11/2020 01:00;1;6;6;22.00;29.00
04/11/2020 01:30;1;2;2;21.50;23.00
04/11/2020 02:00;1;3;3;30.67;41.00
04/11/2020 02:30;1;2;2;26.00;27.00
04/11/2020 03:30;1;3;3;26.33;36.00
04/11/2020 04:00;1;2;2;27.00;33.00
04/11/2020 04:30;1;6;6;28.67;47.00
04/11/2020 05:00;1;10;10;20.80;28.00
04/11/2020 05:30;1;24;24;23.75;37.00
04/11/2020 06:00;1;22;22;23.55;34.00
04/11/2020 06:30;1;48;48;23.23;37.00
04/11/2020 07:00;1;42;42;22.21;29.00
04/11/2020 07:30;1;73;73;23.11;39.00
04/11/2020 08:00;1;94;94;22.72;36.00
04/11/2020 08:30;1;117;117;23.66;38.00
04/11/2020 09:00;1;119;119;23.05;37.00
04/11/2020 09:30;1;126;126;23.17;34.00
04/11/2020 10:00;1;104;104;23.43;43.00
04/11/2020 10:30;1;105;105;23.89;42.00
04/11/2020 11:00;1;92;92;24.14;40.00
04/11/2020 11:30;1;114;114;24.36;47.00
04/11/2020 12:00;1;105;105;23.17;35.00
04/11/2020 12:30;1;114;114;23.98;44.00
04/11/2020 13:00;1;110;110;24.07;43.00
04/11/2020 13:30;1;122;122;23.57;36.00
04/11/2020 14:00;1;123;123;23.07;42.00
04/11/2020 14:30;1;111;111;24.66;45.00
04/11/2020 15:00;1;107;107;23.42;45.00
04/11/2020 15:30;1;89;89;22.96;39.00
04/11/2020 16:00;1;77;77;23.99;43.00
04/11/2020 16:30;1;62;62;27.50;43.00
04/11/2020 17:00;1;118;118;24.58;56.00
04/11/2020 17:30;1;113;113;24.26;42.00
04/11/2020 18:00;1;91;91;22.98;42.00
04/11/2020 18:30;1;117;117;24.04;39.00
04/11/2020 19:00;1;75;75;24.81;47.00
04/11/2020 19:30;1;69;69;24.70;52.00
04/11/2020 20:00;1;46;46;23.70;41.00
04/11/2020 20:30;1;44;44;22.43;37.00
04/11/2020 21:00;1;55;55;26.22;44.00
04/11/2020 21:30;1;27;27;24.26;37.00
04/11/2020 22:00;1;30;30;24.20;40.00
04/11/2020 22:30;1;26;26;26.92;66.00
04/11/2020 23:00;1;22;22;25.36;43.00
04/11/2020 23:30;1;15;15;22.80;30.00
05/11/2020 00:00;1;10;10;25.40;39.00
05/11/2020 00:30;1;8;8;29.62;43.00
05/11/2020 01:00;1;3;3;30.33;44.00
05/11/2020 01:30;1;5;5;21.00;28.00
05/11/2020 03:00;1;3;3;24.33;36.00
05/11/2020 03:30;1;3;3;31.67;39.00
05/11/2020 04:00;1;6;6;26.00;35.00
05/11/2020 04:30;1;9;9;27.89;43.00
05/11/2020 05:00;1;15;15;21.73;34.00
05/11/2020 05:30;1;29;29;24.31;41.00
05/11/2020 06:00;1;23;23;23.74;44.00
05/11/2020 06:30;1;32;32;25.72;39.00
05/11/2020 07:00;1;57;57;22.72;37.00
05/11/2020 07:30;1;85;85;23.33;43.00
05/11/2020 08:00;1;125;125;23.90;39.00
05/11/2020 08:30;1;102;102;23.38;37.00
05/11/2020 09:00;1;122;122;23.43;43.00
05/11/2020 09:30;1;113;113;23.59;39.00
05/11/2020 10:00;1;120;120;22.97;38.00
05/11/2020 10:30;1;113;113;23.50;41.00
05/11/2020 11:00;1;114;114;23.85;41.00
05/11/2020 11:30;1;111;111;24.28;38.00
05/11/2020 12:00;1;108;108;24.18;44.00
05/11/2020 12:30;1;94;94;22.88;37.00
05/11/2020 13:00;1;112;112;24.56;38.00
05/11/2020 13:30;1;134;134;23.55;43.00
05/11/2020 14:00;1;109;109;23.37;36.00
05/11/2020 14:30;1;136;136;24.21;44.00
05/11/2020 15:00;1;86;86;23.58;42.00
05/11/2020 15:30;1;128;128;23.26;38.00
05/11/2020 16:00;1;116;116;22.93;37.00
05/11/2020 16:30;1;136;136;22.99;45.00
05/11/2020 17:00;1;119;119;23.85;35.00
05/11/2020 17:30;1;123;123;24.32;49.00
05/11/2020 18:00;1;117;117;23.44;39.00
05/11/2020 18:30;1;100;100;24.12;45.00
05/11/2020 19:00;1;79;79;23.81;44.00
05/11/2020 19:30;1;70;70;25.01;51.00
05/11/2020 20:00;1;66;66;24.18;39.00
05/11/2020 20:30;1;42;42;24.31;49.00
05/11/2020 21:00;1;39;39;23.67;38.00
05/11/2020 21:30;1;39;39;26.26;56.00
05/11/2020 22:00;1;23;23;21.70;31.00
05/11/2020 22:30;1;23;23;22.96;39.00
05/11/2020 23:00;1;15;15;22.60;35.00
05/11/2020 23:30;1;14;14;22.71;38.00
06/11/2020 00:00;1;13;13;22.85;37.00
06/11/2020 00:30;1;5;5;26.20;29.00
06/11/2020 01:00;1;3;3;24.67;37.00
06/11/2020 01:30;1;6;6;27.00;34.00
06/11/2020 02:00;1;2;2;19.00;21.00
06/11/2020 02:30;1;4;4;30.50;38.00
06/11/2020 03:00;1;3;3;28.33;36.00
06/11/2020 03:30;1;5;5;27.60;39.00
06/11/2020 04:00;1;7;7;25.00;35.00
06/11/2020 04:30;1;7;7;27.14;41.00
06/11/2020 05:00;1;12;12;22.67;31.00
06/11/2020 05:30;1;20;20;24.50;49.00
06/11/2020 06:00;1;14;14;25.29;39.00
06/11/2020 06:30;1;35;35;23.09;37.00
06/11/2020 07:00;1;43;43;22.47;40.00
06/11/2020 07:30;1;98;98;24.46;43.00
06/11/2020 08:00;1;89;89;23.31;39.00
06/11/2020 08:30;1;130;130;24.58;58.00
06/11/2020 09:00;1;132;132;22.41;43.00
06/11/2020 09:30;1;141;141;24.16;37.00
06/11/2020 10:00;1;116;116;23.41;40.00
06/11/2020 10:30;1;113;113;23.68;38.00
06/11/2020 11:00;1;109;109;23.15;38.00
06/11/2020 11:30;1;121;121;22.92;40.00
06/11/2020 12:00;1;110;110;24.57;44.00
06/11/2020 12:30;1;116;116;23.90;45.00
06/11/2020 13:00;1;113;113;23.90;48.00
06/11/2020 13:30;1;130;130;24.25;43.00
06/11/2020 14:00;1;134;134;24.63;43.00
06/11/2020 14:30;1;135;135;22.90;48.00
06/11/2020 15:00;1;98;98;24.10;39.00
06/11/2020 15:30;1;125;125;23.39;50.00
06/11/2020 16:00;1;124;124;23.59;59.00
06/11/2020 16:30;1;111;111;23.04;42.00
06/11/2020 17:00;1;131;131;24.45;45.00
06/11/2020 17:30;1;111;111;23.23;36.00
06/11/2020 18:00;1;115;115;23.70;48.00
06/11/2020 18:30;1;91;91;23.95;50.00
06/11/2020 19:00;1;81;81;22.98;41.00
06/11/2020 19:30;1;63;63;25.00;40.00
06/11/2020 20:00;1;52;52;24.00;46.00
06/11/2020 20:30;1;61;61;24.69;43.00
06/11/2020 21:00;1;48;48;24.69;54.00
06/11/2020 21:30;1;36;36;23.61;38.00
06/11/2020 22:00;1;23;23;23.22;43.00
06/11/2020 22:30;1;28;28;23.43;41.00
06/11/2020 23:00;1;31;31;27.45;44.00
06/11/2020 23:30;1;24;24;25.71;64.00
07/11/2020 00:00;1;14;14;21.79;43.00
07/11/2020 00:30;1;13;13;25.15;38.00
07/11/2020 01:00;1;9;9;27.44;38.00
07/11/2020 01:30;1;9;9;26.44;38.00
07/11/2020 02:00;1;5;5;21.40;33.00
07/11/2020 02:30;1;9;9;24.44;36.00
07/11/2020 03:00;1;2;2;37.00;49.00
07/11/2020 03:30;1;4;4;27.25;42.00
07/11/2020 04:00;1;4;4;35.25;62.00
07/11/2020 04:30;1;8;8;21.88;30.00
07/11/2020 05:00;1;6;6;22.00;29.00
07/11/2020 05:30;1;19;19;22.00;38.00
07/11/2020 06:00;1;13;13;24.62;41.00
07/11/2020 06:30;1;29;29;23.72;47.00
07/11/2020 07:00;1;23;23;23.43;44.00
07/11/2020 07:30;1;39;39;21.54;38.00
07/11/2020 08:00;1;69;69;24.88;40.00
07/11/2020 08:30;1;91;91;25.44;39.00
07/11/2020 09:00;1;114;114;24.88;42.00
07/11/2020 09:30;1;131;131;25.11;45.00
07/11/2020 10:00;1;117;117;24.10;42.00
07/11/2020 10:30;1;127;127;23.14;46.00
07/11/2020 11:00;1;132;132;23.31;41.00
07/11/2020 11:30;1;131;131;24.37;45.00
07/11/2020 12:00;1;142;142;24.01;40.00
07/11/2020 12:30;1;114;114;22.95;40.00
07/11/2020 13:00;1;116;116;22.97;40.00
07/11/2020 13:30;1;135;135;22.96;36.00
07/11/2020 14:00;1;134;134;23.72;43.00
07/11/2020 14:30;1;137;137;23.12;39.00
07/11/2020 15:00;1;132;132;23.27;36.00
07/11/2020 15:30;1;134;134;23.05;38.00
07/11/2020 16:00;1;128;128;23.07;40.00
07/11/2020 16:30;1;128;128;22.83;53.00
07/11/2020 17:00;1;101;101;23.51;35.00
07/11/2020 17:30;1;122;122;23.25;44.00
07/11/2020 18:00;1;105;105;24.15;47.00
07/11/2020 18:30;1;78;78;25.23;46.00
07/11/2020 19:00;1;77;77;23.60;45.00
07/11/2020 19:30;1;68;68;23.06;50.00
07/11/2020 20:00;1;63;63;23.94;43.00
07/11/2020 20:30;1;59;59;24.71;40.00
07/11/2020 21:00;1;40;40;24.65;43.00
07/11/2020 21:30;1;38;38;23.58;40.00
07/11/2020 22:00;1;31;31;26.87;78.00
07/11/2020 22:30;1;24;24;23.62;41.00
07/11/2020 23:00;1;34;34;24.97;48.00
07/11/2020 23:30;1;32;32;23.75;40.00
08/11/2020 00:00;1;20;20;24.90;46.00
08/11/2020 00:30;1;13;13;22.23;29.00
08/11/2020 01:00;1;13;13;23.92;37.00
08/11/2020 01:30;1;11;11;26.82;39.00
08/11/2020 02:00;1;3;3;22.33;26.00
08/11/2020 02:30;1;4;4;25.00;34.00
08/11/2020 03:00;1;7;7;22.43;26.00
08/11/2020 03:30;1;2;2;21.00;21.00
08/11/2020 04:00;1;1;1;22.00;22.00
08/11/2020 04:30;1;3;3;19.33;21.00
08/11/2020 05:00;1;5;5;24.40;32.00
08/11/2020 05:30;1;7;7;23.14;36.00
08/11/2020 06:00;1;8;8;25.88;46.00
08/11/2020 06:30;1;7;7;25.00;37.00
08/11/2020 07:00;1;11;11;26.18;45.00
08/11/2020 07:30;1;14;14;24.64;38.00
08/11/2020 08:00;1;23;23;23.26;33.00
08/11/2020 08:30;1;36;36;23.08;43.00
08/11/2020 09:00;1;44;44;22.59;37.00
08/11/2020 09:30;1;41;41;23.29;37.00
08/11/2020 10:00;1;42;42;24.36;48.00
08/11/2020 10:30;1;40;40;24.70;41.00
08/11/2020 11:00;1;56;56;23.73;41.00
08/11/2020 11:30;1;64;64;24.56;54.00
08/11/2020 12:00;1;67;67;24.87;46.00
08/11/2020 12:30;1;75;75;23.55;39.00
08/11/2020 13:00;1;61;61;24.31;46.00
08/11/2020 13:30;1;69;69;24.12;49.00
08/11/2020 14:00;1;80;80;23.40;38.00
08/11/2020 14:30;1;72;72;24.01;34.00
08/11/2020 15:00;1;83;83;24.60;41.00
08/11/2020 15:30;1;89;89;24.73;41.00
08/11/2020 16:00;1;91;91;23.91;50.00
08/11/2020 16:30;1;87;87;24.06;43.00
08/11/2020 17:00;1;96;96;24.41;42.00
08/11/2020 17:30;1;81;81;24.41;51.00
08/11/2020 18:00;1;85;85;24.74;43.00
08/11/2020 18:30;1;49;49;24.29;38.00
08/11/2020 19:00;1;57;57;25.58;40.00
08/11/2020 19:30;1;40;40;22.80;33.00
08/11/2020 20:00;1;46;46;25.96;50.00
08/11/2020 20:30;1;38;38;23.79;40.00
08/11/2020 21:00;1;30;30;24.13;41.00
08/11/2020 21:30;1;39;39;22.87;40.00
08/11/2020 22:00;1;28;28;23.21;34.00
08/11/2020 22:30;1;22;22;23.23;32.00
08/11/2020 23:00;1;15;15;22.80;33.00
08/11/2020 23:30;1;10;10;23.20;45.00
09/11/2020 00:00;1;8;8;22.88;29.00
09/11/2020 00:30;1;8;8;24.50;32.00
09/11/2020 01:00;1;1;1;19.00;19.00
09/11/2020 01:30;1;3;3;23.33;30.00
09/11/2020 02:00;1;3;3;21.33;27.00
09/11/2020 02:30;1;2;2;32.00;36.00
09/11/2020 03:00;1;2;2;31.00;35.00
09/11/2020 03:30;1;2;2;24.50;31.00
09/11/2020 04:00;1;3;3;30.00;46.00
09/11/2020 04:30;1;9;9;29.11;49.00
09/11/2020 05:00;1;9;9;22.67;31.00
09/11/2020 05:30;1;25;25;25.92;63.00
09/11/2020 06:00;1;22;22;24.18;38.00
09/11/2020 06:30;1;39;39;23.77;41.00
09/11/2020 07:00;1;59;59;25.31;44.00
09/11/2020 07:30;1;82;82;23.48;36.00
09/11/2020 08:00;1;104;104;23.87;43.00
09/11/2020 08:30;1;109;109;24.56;54.00
09/11/2020 09:00;1;121;121;23.67;42.00
09/11/2020 09:30;1;121;121;24.34;42.00
09/11/2020 10:00;1;126;126;24.39;40.00
09/11/2020 10:30;1;111;111;24.68;42.00
09/11/2020 11:00;1;114;114;24.73;41.00
09/11/2020 11:30;1;98;98;24.56;44.00
09/11/2020 12:00;1;114;114;24.27;43.00
09/11/2020 12:30;1;106;106;23.57;41.00
09/11/2020 13:00;1;112;112;23.58;43.00
09/11/2020 13:30;1;113;113;23.95;40.00
09/11/2020 14:00;1;127;127;23.50;43.00
09/11/2020 14:30;1;106;106;23.88;40.00
09/11/2020 15:00;1;107;107;23.76;41.00
09/11/2020 15:30;1;128;128;24.66;51.00
09/11/2020 16:00;1;119;119;23.51;42.00
09/11/2020 16:30;1;102;102;24.00;36.00
09/11/2020 17:00;1;130;130;24.72;45.00
09/11/2020 17:30;1;114;114;24.15;46.00
09/11/2020 18:00;1;85;85;22.86;39.00
09/11/2020 18:30;1;97;97;24.64;38.00
09/11/2020 19:00;1;94;94;24.59;53.00
09/11/2020 19:30;1;54;54;24.61;42.00
09/11/2020 20:00;1;35;35;24.03;40.00
09/11/2020 20:30;1;28;28;25.04;48.00
09/11/2020 21:00;1;30;30;22.97;43.00
09/11/2020 21:30;1;26;26;24.65;43.00
09/11/2020 22:00;1;24;24;22.58;46.00
09/11/2020 22:30;1;15;15;22.53;36.00
09/11/2020 23:00;1;8;8;26.38;49.00
09/11/2020 23:30;1;10;10;22.40;29.00
10/11/2020 00:00;1;15;15;24.67;37.00
10/11/2020 00:30;1;5;5;24.60;29.00
10/11/2020 01:00;1;5;5;24.00;27.00
10/11/2020 01:30;1;5;5;22.20;34.00
10/11/2020 02:30;1;3;3;34.00;41.00
10/11/2020 03:00;1;1;1;23.00;23.00
10/11/2020 03:30;1;3;3;26.67;41.00
10/11/2020 04:00;1;1;1;21.00;21.00
10/11/2020 04:30;1;6;6;25.33;48.00
10/11/2020 05:00;1;11;11;21.73;30.00
10/11/2020 05:30;1;18;18;24.78;36.00
10/11/2020 06:00;1;23;23;22.96;40.00
10/11/2020 06:30;1;37;37;23.49;34.00
10/11/2020 07:00;1;50;50;24.68;41.00
10/11/2020 07:30;1;76;76;23.42;38.00
10/11/2020 08:00;1;84;84;24.05;47.00
10/11/2020 08:30;1;113;113;24.10;40.00
10/11/2020 09:00;1;5;5;22.00;29.00
10/11/2020 13:00;1;111;111;23.88;41.00
10/11/2020 13:30;1;124;124;23.77;46.00
10/11/2020 14:00;1;108;108;24.67;41.00
10/11/2020 14:30;1;77;77;23.21;35.00
10/11/2020 15:00;1;130;130;23.01;46.00
10/11/2020 15:30;1;114;114;23.68;41.00
10/11/2020 16:00;1;111;111;23.28;41.00
10/11/2020 16:30;1;96;96;24.61;70.00
10/11/2020 17:00;1;121;121;24.34;44.00
10/11/2020 17:30;1;122;122;22.80;39.00
10/11/2020 18:00;1;114;114;23.43;43.00
10/11/2020 18:30;1;75;75;24.55;48.00
10/11/2020 19:00;1;69;69;23.54;46.00
10/11/2020 19:30;1;64;64;25.16;51.00
10/11/2020 20:00;1;51;51;23.35;35.00
10/11/2020 20:30;1;52;52;22.96;41.00
10/11/2020 21:00;1;26;26;24.73;41.00
10/11/2020 21:30;1;32;32;25.12;43.00
10/11/2020 22:00;1;15;15;26.87;41.00
10/11/2020 22:30;1;19;19;24.84;52.00
10/11/2020 23:00;1;10;10;23.50;32.00
10/11/2020 23:30;1;8;8;27.12;38.00
11/11/2020 00:00;1;10;10;21.70;28.00
11/11/2020 00:30;1;6;6;27.50;42.00
11/11/2020 01:00;1;3;3;19.00;21.00
11/11/2020 01:30;1;3;3;23.33;26.00
11/11/2020 02:00;1;1;1;33.00;33.00
11/11/2020 03:30;1;2;2;34.00;45.00
11/11/2020 04:00;1;1;1;22.00;22.00
11/11/2020 04:30;1;8;8;28.50;45.00
11/11/2020 05:00;1;9;9;19.78;23.00
11/11/2020 05:30;1;18;18;22.67;40.00
11/11/2020 06:00;1;22;22;23.50;39.00
11/11/2020 06:30;1;33;33;22.12;36.00
11/11/2020 07:00;1;52;52;22.37;32.00
11/11/2020 07:30;1;72;72;24.29;41.00
11/11/2020 08:00;1;82;82;23.95;43.00
11/11/2020 08:30;1;129;129;24.53;45.00
11/11/2020 09:00;1;108;108;24.98;41.00
11/11/2020 09:30;1;110;110;23.72;37.00
11/11/2020 10:00;1;120;120;24.10;41.00
11/11/2020 10:30;1;113;113;24.10;42.00
11/11/2020 11:00;1;117;117;23.64;40.00
11/11/2020 11:30;1;118;118;25.34;44.00
11/11/2020 12:00;1;96;96;23.43;38.00
11/11/2020 12:30;1;99;99;23.40;40.00
11/11/2020 13:00;1;122;122;24.11;50.00
11/11/2020 13:30;1;119;119;23.52;43.00
11/11/2020 14:00;1;110;110;23.64;40.00
11/11/2020 14:30;1;114;114;22.77;33.00
11/11/2020 15:00;1;117;117;24.33;37.00
11/11/2020 15:30;1;110;110;23.54;37.00
11/11/2020 16:00;1;116;116;23.66;38.00
11/11/2020 16:30;1;108;108;24.05;38.00
11/11/2020 17:00;1;115;115;23.83;43.00
11/11/2020 17:30;1;121;121;23.96;38.00
11/11/2020 18:00;1;107;107;23.50;46.00
11/11/2020 18:30;1;84;84;24.60;50.00
11/11/2020 19:00;1;78;78;23.73;43.00
11/11/2020 19:30;1;73;73;25.58;48.00
11/11/2020 20:00;1;43;43;23.74;39.00
11/11/2020 20:30;1;31;31;23.90;51.00
11/11/2020 21:00;1;41;41;28.17;50.00
11/11/2020 21:30;1;36;36;24.83;40.00
11/11/2020 22:00;1;31;31;26.71;93.00
11/11/2020 22:30;1;14;14;24.21;34.00
11/11/2020 23:00;1;13;13;25.85;45.00
11/11/2020 23:30;1;20;20;26.15;47.00
12/11/2020 00:00;1;16;16;22.50;34.00
12/11/2020 00:30;1;8;8;30.12;52.00
12/11/2020 01:00;1;3;3;26.00;35.00
12/11/2020 01:30;1;4;4;20.25;24.00
12/11/2020 02:00;1;3;3;26.67;33.00
12/11/2020 02:30;1;1;1;47.00;47.00
12/11/2020 03:00;1;1;1;23.00;23.00
12/11/2020 03:30;1;2;2;28.50;38.00
12/11/2020 04:00;1;5;5;25.60;41.00
12/11/2020 04:30;1;6;6;22.83;30.00
12/11/2020 05:00;1;11;11;20.64;26.00
12/11/2020 05:30;1;27;27;24.37;37.00
12/11/2020 06:00;1;15;15;23.27;36.00
12/11/2020 06:30;1;43;43;23.21;43.00
12/11/2020 07:00;1;59;59;22.83;42.00
12/11/2020 07:30;1;91;91;23.93;37.00
12/11/2020 08:00;1;95;95;23.47;42.00
12/11/2020 08:30;1;128;128;24.05;52.00
12/11/2020 09:00;1;121;121;24.91;43.00
12/11/2020 09:30;1;142;142;24.58;39.00
12/11/2020 10:00;1;138;138;23.57;39.00
12/11/2020 10:30;1;107;107;24.21;40.00
12/11/2020 11:00;1;126;126;23.87;40.00
12/11/2020 11:30;1;112;112;24.20;59.00
12/11/2020 12:00;1;108;108;23.83;42.00
12/11/2020 12:30;1;113;113;24.00;43.00
12/11/2020 13:00;1;111;111;25.04;43.00
12/11/2020 13:30;1;120;120;24.42;42.00
12/11/2020 14:00;1;126;126;23.89;51.00
12/11/2020 14:30;1;106;106;23.89;36.00
12/11/2020 15:00;1;103;103;23.62;38.00
12/11/2020 15:30;1;125;125;24.55;46.00
12/11/2020 16:00;1;124;124;23.32;38.00
12/11/2020 16:30;1;128;128;24.06;43.00
12/11/2020 17:00;1;125;125;23.28;36.00
12/11/2020 17:30;1;127;127;24.41;41.00
12/11/2020 18:00;1;98;98;24.58;43.00
12/11/2020 18:30;1;93;93;23.78;48.00
12/11/2020 19:00;1;83;83;24.00;46.00
12/11/2020 19:30;1;78;78;24.97;38.00
12/11/2020 20:00;1;64;64;25.67;44.00
12/11/2020 20:30;1;44;44;23.73;34.00
12/11/2020 21:00;1;43;43;29.23;82.00
12/11/2020 21:30;1;33;33;24.36;39.00
12/11/2020 22:00;1;30;30;24.57;37.00
12/11/2020 22:30;1;10;10;21.20;40.00
12/11/2020 23:00;1;14;14;24.86;39.00
12/11/2020 23:30;1;24;24;25.79;46.00
13/11/2020 00:00;1;10;10;29.00;55.00
13/11/2020 00:30;1;10;10;26.80;38.00
13/11/2020 01:00;1;4;4;23.00;29.00
13/11/2020 01:30;1;2;2;22.50;28.00
13/11/2020 02:00;1;2;2;29.00;41.00
13/11/2020 02:30;1;1;1;30.00;30.00
13/11/2020 03:00;1;1;1;16.00;16.00
13/11/2020 03:30;1;3;3;28.00;37.00
13/11/2020 04:00;1;4;4;28.75;39.00
13/11/2020 04:30;1;7;7;32.00;50.00
13/11/2020 05:00;1;11;11;20.91;33.00
13/11/2020 05:30;1;18;18;23.56;44.00
13/11/2020 06:00;1;25;25;25.52;39.00
13/11/2020 06:30;1;41;41;23.61;42.00
13/11/2020 07:00;1;46;46;24.09;47.00
13/11/2020 07:30;1;96;96;23.55;39.00
13/11/2020 08:00;1;111;111;24.63;41.00
13/11/2020 08:30;1;133;133;24.65;47.00
13/11/2020 09:00;1;111;111;23.60;39.00
13/11/2020 09:30;1;135;135;23.96;43.00
13/11/2020 10:00;1;112;112;22.76;39.00
13/11/2020 10:30;1;137;137;24.85;42.00
13/11/2020 11:00;1;103;103;23.14;37.00
13/11/2020 11:30;1;141;141;23.62;37.00
13/11/2020 12:00;1;110;110;22.73;37.00
13/11/2020 12:30;1;112;112;23.38;36.00
13/11/2020 13:00;1;117;117;23.77;38.00
13/11/2020 13:30;1;107;107;23.81;41.00
13/11/2020 14:00;1;112;112;23.42;38.00
13/11/2020 14:30;1;126;126;23.40;46.00
13/11/2020 15:00;1;125;125;23.23;39.00
13/11/2020 15:30;1;117;117;23.80;41.00
13/11/2020 16:00;1;118;118;24.03;43.00
13/11/2020 16:30;1;135;135;23.75;43.00
13/11/2020 17:00;1;100;100;23.81;39.00
13/11/2020 17:30;1;111;111;23.08;47.00
13/11/2020 18:00;1;111;111;23.09;43.00
13/11/2020 18:30;1;118;118;24.12;49.00
13/11/2020 19:00;1;86;86;24.84;50.00
13/11/2020 19:30;1;79;79;25.01;48.00
13/11/2020 20:00;1;61;61;23.93;44.00
13/11/2020 20:30;1;47;47;23.98;41.00
13/11/2020 21:00;1;39;39;23.49;35.00
13/11/2020 21:30;1;36;36;23.89;37.00
13/11/2020 22:00;1;40;40;24.65;51.00
13/11/2020 22:30;1;28;28;23.46;49.00
13/11/2020 23:00;1;33;33;25.61;43.00
13/11/2020 23:30;1;26;26;24.54;43.00
14/11/2020 00:00;1;21;21;30.05;49.00
14/11/2020 00:30;1;17;17;24.29;35.00
14/11/2020 01:00;1;11;11;23.09;35.00
14/11/2020 01:30;1;9;9;24.33;32.00
14/11/2020 02:00;1;3;3;32.00;41.00
14/11/2020 02:30;1;4;4;31.25;54.00
14/11/2020 03:30;1;2;2;35.50;38.00
14/11/2020 04:00;1;4;4;23.50;34.00
14/11/2020 04:30;1;5;5;29.40;41.00
14/11/2020 05:00;1;7;7;18.14;22.00
14/11/2020 05:30;1;16;16;23.06;47.00
14/11/2020 06:00;1;13;13;22.69;28.00
14/11/2020 06:30;1;17;17;25.29;41.00
14/11/2020 07:00;1;33;33;24.30;36.00
14/11/2020 07:30;1;57;57;25.18;44.00
14/11/2020 08:00;1;59;59;25.63;44.00
14/11/2020 08:30;1;105;105;24.51;40.00
14/11/2020 09:00;1;132;132;24.46;44.00
14/11/2020 09:30;1;154;154;24.90;51.00
14/11/2020 10:00;1;130;130;23.23;42.00
14/11/2020 10:30;1;113;113;23.65;42.00
14/11/2020 11:00;1;144;144;23.65;46.00
14/11/2020 11:30;1;135;135;23.79;41.00
14/11/2020 12:00;1;130;130;24.29;41.00
14/11/2020 12:30;1;149;149;23.13;43.00
14/11/2020 13:00;1;141;141;22.98;37.00
14/11/2020 13:30;1;146;146;22.92;48.00
14/11/2020 14:00;1;145;145;23.10;41.00
14/11/2020 14:30;1;121;121;22.59;42.00
14/11/2020 15:00;1;118;118;22.46;40.00
14/11/2020 15:30;1;145;145;22.39;35.00
14/11/2020 16:00;1;136;136;22.68;39.00
14/11/2020 16:30;1;130;130;23.53;39.00
14/11/2020 17:00;1;123;123;22.39;35.00
14/11/2020 17:30;1;115;115;23.83;42.00
14/11/2020 18:00;1;98;98;22.74;37.00
14/11/2020 18:30;1;98;98;24.20;41.00
14/11/2020 19:00;1;66;66;24.02;44.00
14/11/2020 19:30;1;67;67;23.87;40.00
14/11/2020 20:00;1;72;72;24.35;46.00
14/11/2020 20:30;1;58;58;26.14;42.00
14/11/2020 21:00;1;47;47;25.91;49.00
14/11/2020 21:30;1;34;34;23.94;46.00
14/11/2020 22:00;1;29;29;25.69;50.00
14/11/2020 22:30;1;29;29;25.79;42.00
14/11/2020 23:00;1;32;32;24.06;40.00
14/11/2020 23:30;1;16;16;21.88;35.00
15/11/2020 00:00;1;26;26;27.08;47.00
15/11/2020 00:30;1;19;19;29.68;51.00
15/11/2020 01:00;1;12;12;22.58;27.00
15/11/2020 01:30;1;5;5;24.60;31.00
15/11/2020 02:00;1;5;5;25.00;36.00
15/11/2020 02:30;1;6;6;25.50;34.00
15/11/2020 03:00;1;3;3;27.33;35.00
15/11/2020 03:30;1;3;3;31.00;36.00
15/11/2020 04:00;1;3;3;25.67;34.00
15/11/2020 04:30;1;4;4;21.25;27.00
15/11/2020 05:00;1;4;4;31.00;43.00
15/11/2020 05:30;1;3;3;28.67;35.00
15/11/2020 06:00;1;5;5;26.00;33.00
15/11/2020 06:30;1;6;6;22.50;42.00
15/11/2020 07:00;1;11;11;25.18;32.00
15/11/2020 07:30;1;13;13;24.46;38.00
15/11/2020 08:00;1;16;16;21.88;32.00
15/11/2020 08:30;1;26;26;22.81;33.00
15/11/2020 09:00;1;20;20;24.80;42.00
15/11/2020 09:30;1;40;40;24.68;38.00
15/11/2020 10:00;1;35;35;25.11;40.00
15/11/2020 10:30;1;55;55;24.40;48.00
15/11/2020 11:00;1;51;51;22.69;34.00
15/11/2020 11:30;1;78;78;25.38;43.00
15/11/2020 12:00;1;52;52;23.44;36.00
15/11/2020 12:30;1;79;79;25.46;62.00
15/11/2020 13:00;1;75;75;25.24;41.00
15/11/2020 13:30;1;95;95;24.93;39.00
15/11/2020 14:00;1;75;75;24.45;44.00
15/11/2020 14:30;1;86;86;23.53;40.00
15/11/2020 15:00;1;102;102;24.78;46.00
15/11/2020 15:30;1;89;89;24.67;41.00
15/11/2020 16:00;1;91;91;23.82;34.00
15/11/2020 16:30;1;92;92;24.33;53.00
15/11/2020 17:00;1;95;95;25.05;42.00
15/11/2020 17:30;1;86;86;24.21;39.00
15/11/2020 18:00;1;70;70;24.04;44.00
15/11/2020 18:30;1;64;64;23.09;37.00
15/11/2020 19:00;1;52;52;26.17;43.00
15/11/2020 19:30;1;48;48;24.27;40.00
15/11/2020 20:00;1;42;42;25.45;38.00
15/11/2020 20:30;1;35;35;23.34;40.00
15/11/2020 21:00;1;31;31;24.19;38.00
15/11/2020 21:30;1;37;37;22.76;36.00
15/11/2020 22:00;1;27;27;23.41;39.00
15/11/2020 22:30;1;19;19;23.79;41.00
15/11/2020 23:00;1;13;13;22.54;31.00
15/11/2020 23:30;1;13;13;21.54;32.00
16/11/2020 00:00;1;7;7;23.14;37.00
16/11/2020 00:30;1;2;2;29.50;31.00
16/11/2020 01:00;1;3;3;20.67;23.00
16/11/2020 01:30;1;2;2;19.00;22.00
16/11/2020 02:30;1;2;2;24.00;29.00
16/11/2020 03:30;1;4;4;30.25;43.00
16/11/2020 04:00;1;2;2;22.50;29.00